User: anonymous   Login
Location: Theydon Bois
(51.6750°N, 0.1050°E)
Time: 20:44:07
(UTC+00:00)
Language:

Cosmos 2154 Rocket - Orbit

View from above orbital plane
View from above orbital plane
View from above satellite
View from above satellite

Ground track
Ground track

The orbit data is extracted from the following two-line orbital elements,

1 21667U 91059B   17344.83477235 +.00000029 +00000-0 +14717-4 0  9999
2 21667 082.9076 237.5780 0021808 119.4430 307.6450 13.75085936319970
Epoch (UTC): 10 December 2017 20:02:04
Eccentricity: 0.0021808
inclination: 82.9076°
perigee height: 965 km
apogee height: 997 km
right ascension of ascending node: 237.5780°
argument of perigee: 119.4430°
revolutions per day: 13.75085936
mean anomaly at epoch: 307.6450°
orbit number at epoch: 31997

The dashed part of the orbit path shows where the satellite is in the earth's shadow,  

DLR